TimePDT,TemperatureF,Dew PointF,Humidity,Sea Level PressureIn,VisibilityMPH,Wind Direction,Wind SpeedMPH,Gust SpeedMPH,PrecipitationIn,Events,Conditions,WindDirDegrees,DateUTC
12:15 AM,59.0,59.0,100,30.08,2.5,Calm,Calm,-,N/A,,Overcast,0,2013-09-05 07:15:00
12:35 AM,59.0,59.0,100,30.08,4.0,Calm,Calm,-,N/A,,Overcast,0,2013-09-05 07:35:00
12:55 AM,59.0,59.0,100,30.08,4.0,Calm,Calm,-,N/A,,Overcast,0,2013-09-05 07:55:00
1:15 AM,59.0,59.0,100,30.07,5.0,Calm,Calm,-,N/A,,Overcast,0,2013-09-05 08:15:00
1:35 AM,59.0,59.0,100,30.07,7.0,Calm,Calm,-,N/A,,Overcast,0,2013-09-05 08:35:00
1:55 AM,59.0,59.0,100,30.07,5.0,Calm,Calm,-,N/A,,Overcast,0,2013-09-05 08:55:00
2:15 AM,59.0,59.0,100,30.07,4.0,Calm,Calm,-,N/A,,Overcast,0,2013-09-05 09:15:00
2:35 AM,59.0,59.0,100,30.07,7.0,Calm,Calm,-,N/A,,Overcast,0,2013-09-05 09:35:00
2:55 AM,59.0,59.0,100,30.06,7.0,Calm,Calm,-,N/A,,Overcast,0,2013-09-05 09:55:00
3:15 AM,59.0,59.0,100,30.06,4.0,Calm,Calm,-,N/A,,Overcast,0,2013-09-05 10:15:00
3:35 AM,59.0,59.0,100,30.06,3.0,Calm,Calm,-,N/A,,Overcast,0,2013-09-05 10:35:00
3:55 AM,59.0,59.0,100,30.06,4.0,Calm,Calm,-,N/A,,Overcast,0,2013-09-05 10:55:00
4:15 AM,59.0,59.0,100,30.06,7.0,Calm,Calm,-,N/A,,Overcast,0,2013-09-05 11:15:00
4:35 AM,59.0,59.0,100,30.06,7.0,Calm,Calm,-,N/A,,Overcast,0,2013-09-05 11:35:00
4:55 AM,59.0,59.0,100,30.05,7.0,Calm,Calm,-,N/A,,Overcast,0,2013-09-05 11:55:00
5:15 AM,59.0,59.0,100,30.05,10.0,Calm,Calm,-,N/A,,Overcast,0,2013-09-05 12:15:00
5:35 AM,59.0,59.0,100,30.05,7.0,Calm,Calm,-,N/A,,Overcast,0,2013-09-05 12:35:00
5:55 AM,59.0,59.0,100,30.06,7.0,Calm,Calm,-,N/A,,Overcast,0,2013-09-05 12:55:00
6:15 AM,59.0,59.0,100,30.06,7.0,Calm,Calm,-,N/A,,Overcast,0,2013-09-05 13:15:00
6:35 AM,59.0,59.0,100,30.06,10.0,Calm,Calm,-,N/A,,Overcast,0,2013-09-05 13:35:00
6:55 AM,59.0,59.0,100,30.06,10.0,Calm,Calm,-,N/A,,Overcast,0,2013-09-05 13:55:00
7:15 AM,59.0,59.0,100,30.07,10.0,Calm,Calm,-,N/A,,Overcast,0,2013-09-05 14:15:00
7:35 AM,59.0,59.0,100,30.07,10.0,Calm,Calm,-,N/A,,Overcast,0,2013-09-05 14:35:00
7:55 AM,60.8,59.0,94,30.07,10.0,Calm,Calm,-,N/A,,Overcast,0,2013-09-05 14:55:00
8:15 AM,60.8,59.0,94,30.08,5.0,Calm,Calm,-,N/A,,Overcast,0,2013-09-05 15:15:00
8:35 AM,60.8,59.0,94,30.07,10.0,Calm,Calm,-,N/A,,Overcast,0,2013-09-05 15:35:00
8:55 AM,60.8,59.0,94,30.07,5.0,Calm,Calm,-,N/A,,Overcast,0,2013-09-05 15:55:00
9:15 AM,60.8,59.0,94,30.07,7.0,WNW,3.5,-,N/A,,Overcast,290,2013-09-05 16:15:00
9:35 AM,60.8,59.0,94,30.07,10.0,WSW,3.5,-,N/A,,Overcast,250,2013-09-05 16:35:00
9:55 AM,60.8,59.0,94,30.07,10.0,West,5.8,-,N/A,,Overcast,260,2013-09-05 16:55:00
10:15 AM,60.8,59.0,94,30.07,10.0,WSW,5.8,-,N/A,,Overcast,240,2013-09-05 17:15:00
10:35 AM,60.8,59.0,94,30.07,10.0,SW,3.5,-,N/A,,Overcast,230,2013-09-05 17:35:00
10:55 AM,60.8,59.0,94,30.08,7.0,WSW,3.5,-,N/A,,Overcast,250,2013-09-05 17:55:00
11:15 AM,60.8,59.0,94,30.07,2.5,Calm,Calm,-,N/A,,Drizzle,0,2013-09-05 18:15:00
11:35 AM,60.8,59.0,94,30.06,1.8,NW,4.6,-,N/A,,Drizzle,320,2013-09-05 18:35:00
11:55 AM,60.8,60.8,100,30.07,5.0,North,5.8,-,N/A,,Overcast,350,2013-09-05 18:55:00
12:15 PM,60.8,60.8,100,30.07,7.0,NNW,5.8,-,N/A,,Overcast,330,2013-09-05 19:15:00
12:35 PM,60.8,59.0,94,30.08,10.0,NW,3.5,-,N/A,,Overcast,310,2013-09-05 19:35:00
12:55 PM,60.8,59.0,94,30.08,5.0,West,3.5,-,N/A,,Overcast,270,2013-09-05 19:55:00
1:15 PM,60.8,60.8,100,30.09,2.0,West,3.5,-,N/A,Rain,Rain,260,2013-09-05 20:15:00
1:35 PM,60.8,60.8,100,30.08,1.2,WSW,5.8,-,N/A,Rain,Light Rain,250,2013-09-05 20:35:00
1:55 PM,60.8,60.8,100,30.08,1.0,Calm,Calm,-,N/A,Rain,Light Rain,0,2013-09-05 20:55:00
2:15 PM,60.8,60.8,100,30.08,2.5,NNW,6.9,-,0.05,Rain,Heavy Rain,330,2013-09-05 21:15:00
2:35 PM,60.8,60.8,100,30.08,3.0,NNW,5.8,-,0.08,Rain,Rain,340,2013-09-05 21:35:00
2:55 PM,60.8,60.8,100,30.08,2.5,NW,5.8,-,0.10,Rain,Light Rain,310,2013-09-05 21:55:00
3:15 PM,60.8,60.8,100,30.09,4.0,WNW,5.8,-,0.01,Rain,Light Rain,290,2013-09-05 22:15:00
3:35 PM,60.8,60.8,100,30.09,3.0,WNW,6.9,-,0.06,Rain,Heavy Rain,290,2013-09-05 22:35:00
3:55 PM,60.8,60.8,100,30.10,3.0,SW,3.5,-,0.13,Rain,Rain,230,2013-09-05 22:55:00
4:15 PM,60.8,59.0,94,30.11,2.5,West,5.8,-,0.09,Rain,Heavy Rain,270,2013-09-05 23:15:00
4:35 PM,59.0,59.0,100,30.10,-9999.0,Calm,Calm,-,0.02,Rain,Rain,0,2013-09-05 23:35:00
4:55 PM,59.0,59.0,100,30.11,4.0,Calm,Calm,-,0.05,Rain,Light Rain,0,2013-09-05 23:55:00
5:15 PM,59.0,59.0,100,30.10,4.0,SW,4.6,-,0.03,Rain,Rain,220,2013-09-06 00:15:00
5:35 PM,59.0,59.0,100,30.11,2.5,Calm,Calm,-,0.06,Rain,Rain,0,2013-09-06 00:35:00
5:55 PM,60.8,59.0,94,30.10,3.0,Calm,Calm,-,0.12,Rain,Rain,0,2013-09-06 00:55:00
6:15 PM,60.8,59.0,94,30.10,5.0,Calm,Calm,-,0.02,Rain,Rain,0,2013-09-06 01:15:00
6:35 PM,60.8,59.0,94,30.09,4.0,Calm,Calm,-,0.05,Rain,Rain,0,2013-09-06 01:35:00
6:55 PM,60.8,59.0,94,30.09,3.0,WSW,3.5,-,0.08,Rain,Rain,240,2013-09-06 01:55:00
7:15 PM,60.8,59.0,94,30.09,3.0,Calm,Calm,-,0.02,Rain,Rain,0,2013-09-06 02:15:00
7:35 PM,60.8,59.0,94,30.10,3.0,West,3.5,-,0.04,Rain,Rain,270,2013-09-06 02:35:00
7:55 PM,60.8,60.8,100,30.10,5.0,WNW,3.5,-,0.07,Rain,Rain,290,2013-09-06 02:55:00
8:15 PM,60.8,59.0,94,30.11,7.0,Calm,Calm,-,0.01,Rain,Rain,0,2013-09-06 03:15:00
8:35 PM,60.8,59.0,94,30.11,5.0,Calm,Calm,-,0.02,Rain,Light Rain,0,2013-09-06 03:35:00
8:55 PM,60.8,59.0,94,30.11,5.0,Calm,Calm,-,0.03,Rain,Rain,0,2013-09-06 03:55:00
9:15 PM,60.8,59.0,94,30.12,7.0,South,3.5,-,0.01,Rain,Light Rain,170,2013-09-06 04:15:00
9:35 PM,60.8,59.0,94,30.12,7.0,South,4.6,-,0.01,,Overcast,190,2013-09-06 04:35:00
9:55 PM,60.8,59.0,94,30.11,10.0,SSW,10.4,-,0.01,,Overcast,200,2013-09-06 04:55:00
10:15 PM,60.8,60.8,100,30.12,7.0,SSW,9.2,-,N/A,,Overcast,200,2013-09-06 05:15:00
10:35 PM,60.8,60.8,100,30.13,5.0,SW,8.1,-,N/A,,Overcast,220,2013-09-06 05:35:00
10:55 PM,60.8,60.8,100,30.14,5.0,SSW,8.1,-,0.03,Rain,Rain,210,2013-09-06 05:55:00
11:15 PM,60.8,60.8,100,30.14,5.0,SSW,9.2,-,0.01,Rain,Light Rain,200,2013-09-06 06:15:00
11:35 PM,60.8,60.8,100,30.13,7.0,South,9.2,-,0.02,Rain,Rain,190,2013-09-06 06:35:00
11:55 PM,60.8,60.8,100,30.13,7.0,SSW,9.2,-,0.02,,Drizzle,200,2013-09-06 06:55:00